Regional Weather Roundup
Issued by NWS

Home | Current Version | Previous Version | Graphics & Text | Print | Product List | Glossary On
Versions: 1 2 3 4 5 6 7 8 9 10 11 12 13 14 15 16 17 18 19 20 21 22 23 24 25 26 27 28 29 30 31 32 33 34 35 36 37 38 39 40 41 42 43 44 45 46 47 48 49 50
000
ASUS43 KMKX 230221
RWRWI

WISCONSIN REGIONAL WEATHER ROUNDUP
NATIONAL WEATHER SERVICE MILWAUKEE/SULLIVAN WI
900 PM CDT SUN OCT 22 2017

NOTE: "FAIR" INDICATES FEW OR NO CLOUDS BELOW 12,000 FEET WITH NO
SIGNIFICANT WEATHER AND/OR OBSTRUCTIONS TO VISIBILITY.

WIZ001-002-006>008-014>016-023>028-230300-
NORTHWEST WISCONSIN

CITY           SKY/WX    TMP DP  RH WIND       PRES   REMARKS
SUPERIOR ARPT  PTCLDY    47  34  59 S7        29.88S
ASHLAND        CLEAR     49  33  54 S7        29.92S
HAYWARD        CLEAR     40  36  86 CALM      29.94S
SIREN          MOCLDY    51  33  51 S6        29.92F
CUMBERLAND     CLEAR     43  32  65 S6        29.94F
RICE LAKE      CLEAR     46  34  62 CALM      29.97S
CHETEK         CLEAR     44  35  69 SE3       29.96S
LADYSMITH      CLEAR     46  41  82 SE6       29.99S
EAU CLAIRE     CLEAR     49  42  77 S10       29.97S
MENOMONIE      CLEAR     45  37  71 E7        29.97S
NEW RICHMOND   CLEAR     48  32  53 S7        29.94F
OSCEOLA        CLOUDY    49  35  57 S7        29.96S
$$

WIZ003>005-009-010-017-018-230300-
NORTH CENTRAL WISCONSIN

CITY           SKY/WX    TMP DP  RH WIND       PRES   REMARKS
MANITOWISH WTR CLEAR     40  40 100 S7        29.97R
ARBOR VITAE    CLOUDY    43  40  89 S6        29.98S
WOODRUFF       CLOUDY    43  40  89 S6        29.98S
RHINELANDER    CLOUDY    43  41  93 SW6       30.00R
EAGLE RIVER    NOT AVBL
LAND O LAKES   PTCLDY    42  40  94 CALM      30.00R
PHILLIPS       PTCLDY    43  41  92 S7        29.97S
TOMAHAWK       CLOUDY    39  38  94 CALM      30.00S
MEDFORD        CLEAR     41  39  93 S7        29.99S
MERRILL        CLOUDY    40  39  96 CALM      30.01R
$$

WIZ029-030-035-036-043>047-230300-
CENTRAL WISCONSIN

CITY           SKY/WX    TMP DP  RH WIND       PRES   REMARKS
WAUSAU         CLOUDY    46  44  93 VRB5      30.00S
MOSINEE        CLEAR     43  43 100 S7        30.02F
MARSHFIELD     CLOUDY    42  40  92 CALM      30.00F
STEVENS POINT  CLOUDY    43  43 100 S3        30.03F
WAUPACA          N/A     48  47  97 CALM      30.04F FOG
WAUTOMA        CLOUDY   N/A N/A N/A CALM      30.05F
WISC RAPIDS    CLOUDY    45  44  97 S5        30.03F
CAMP DOUGLAS   NOT AVBL
$$

WIZ011>013-019>022-031-037>040-048>050-230300-
NORTHEAST WISCONSIN

CITY           SKY/WX    TMP DP  RH WIND       PRES   REMARKS
ANTIGO         CLOUDY    41  41 100 S3        30.02S
SHAWANO        CLOUDY    49  47  93 CALM      30.03S
OCONTO         CLOUDY    48  47  97 CALM      30.03S
STURGEON BAY   CLOUDY    50  49  96 SW5       30.04R
GREEN BAY      CLOUDY    50  49  96 W5        30.04R
MANITOWOC      LGT RAIN  50  49  96 W3        30.04S
APPLETON       MOCLDY    48  48 100 CALM      30.03R
CLINTONVILLE   CLOUDY    48  46  93 CALM      30.03S
OSHKOSH        CLOUDY    49  48  97 W3        30.03F
$$

WIZ032>034-041-042-053>061-230300-
SOUTHWEST WISCONSIN

CITY           SKY/WX    TMP DP  RH WIND       PRES   REMARKS
LA CROSSE      CLEAR     50  44  80 S8        30.01F
SPARTA         CLOUDY    38  38 100 CALM      30.04R
VIROQUA        CLEAR     46  45  93 S6        30.03S
BOSCOBEL       FOG       45  43  93 CALM      30.05S VSB 1/2
PRAIRIE DU CHI CLOUDY    46  44  91 CALM      30.04S
PLATTEVILLE    CLOUDY    48  48 100 SE5       30.05F
$$

WIZ056-057-062-063-064-067-068-230300-
SOUTH CENTRAL WISCONSIN

CITY           SKY/WX    TMP DP  RH WIND       PRES   REMARKS
REEDSBURG      CLOUDY    48  48 100 CALM      30.04S
BARABOO/DELLS  CLOUDY    46  45  95 S3        30.04F
LONE ROCK      MOCLDY    47  47 100 E3        30.05F
MINERAL POINT  CLOUDY    50  50 100 S3        30.05F
MADISON        CLOUDY    48  47  96 CALM      30.05F
MIDDLETON      CLOUDY    49  49 100 CALM      30.06R
WATERTOWN      CLOUDY    49  49 100 W3        30.05S
MONROE         MOCLDY    48  45  87 W6        30.05F
JANESVILLE     CLOUDY    50  50 100 CALM      30.05S
$$

WIZ051-052-058>065-066-070>072-230300-
SOUTHEAST WISCONSIN

CITY           SKY/WX    TMP DP  RH WIND       PRES   REMARKS
MILWAUKEE      CLOUDY    52  50  93 NW8       30.05R
WAUKESHA       CLOUDY    48  48 100 W3        30.06S
MILWAUKEE/TIMM CLOUDY    50  46  87 CALM      30.06R
RACINE         LGT RAIN  51  50  96 NW6       30.06R
BURLINGTON     CLOUDY    49  49 100 CALM      30.05S
KENOSHA        CLOUDY    51  48  89 NW5       30.05S
FOND DU LAC    CLOUDY    50  47  89 CALM      30.04F
SHEBOYGAN      CLOUDY    50  50 100 W3        30.04S
WEST BEND      CLOUDY    48  48 100 W3        30.04F
JUNEAU         CLOUDY    48  47  99 CALM      30.06S
$$

LSZ147-162-230300-
LAKE SUPERIOR

STATION/POSITION TIME  TEMP    WIND        PRES    WAVE
                       AIR SEA DIR/SP/G            HT/PER
                 (UTC) (F)     (DEG/KT/KT) (MB)    (FT/S)
W MID LAKE BUOY  0150   53 52              1012.2R   3/ 5
DEVILS ISLAND    0200   56     190/ 12/ 15 1012.3F
PORT WING        2340          180/  4/  5 1012.2
SAXON HARBOR     0140   51     210/  4/  8 1012.9S
$$

LMZ867-665-643>646-230300-
LAKE MICHIGAN

STATION/POSITION TIME  TEMP    WIND        PRES    WAVE
                       AIR SEA DIR/SP/G            HT/PER
                 (UTC) (F)     (DEG/KT/KT) (MB)    (FT/S)
S GREEN BAY BUOY 0200   53 58  250/ 10/ 12 1016.9
N MID LAKE BUOY  0150   52 57  220/  6/  6 1017.0F   3/ 6
NORTHPORT PIER   0140   51     160/  4/  6 1016.3S
KEWAUNEE LAKESHO 0154   51     270/  5/  7 1016.3R
SHEBOYGAN LAKESH 0200   51     270/  4/  5 1017.3S
PORT WASHINGTON  0140   51     300/  2/  5 1018.6R
MILWAUKEE LAKESH 0200   51     320/  6/  7   N/A
S MID LAKE BUOY  0150   55 59   20/ 16/ 17 1016.2F   5/ 6
KENOSHA   LAKESH 0200   51     310/  8/ 10 1017.3
$$

TC  - TEMPERATURE IN CELSIUS
VSB - VISIBILITY IN STATUTE MILES
WCI - WIND CHILL INDEX
HX  - HEAT INDEX





USA.gov is the U.S. government's official web portal to all federal, state and local government web resources and services.